User: anonymous   Login
Location: Unspecified
(0.0000°N, 0.0000°E)
Time: 19:00:15
(UTC+00:00)
Language:

STARLINK-6310 - Orbit

View from above orbital plane
View from above orbital plane
View from above satellite
View from above satellite

Ground track
Ground track

The orbit is defined by the following mean orbital elements,

1 56533U          26145.43578692 +.00000000 +00000-0 +17413-4 0 00007
2 56533  43.0013 124.6287 0000915 264.1083  95.9664 15.27578395    05
Epoch (UTC): 25 May 2026 10:27:31
Eccentricity: 0.0000915
inclination: 43.0013°
perigee height: 482 km
apogee height: 484 km
right ascension of ascending node: 124.6287°
argument of perigee: 264.1083°
revolutions per day: 15.27578395
mean anomaly at epoch: 95.9664°

The dashed part of the orbit path shows where the satellite is in the earth's shadow,  

DLR